User: anonymous
Location: Stigler
(35.2540°N, 95.1230°W)
Time: 19:23:05
(UTC-05:00)
Language:

Cosmos 1805 - Orbit

View from above orbital plane
View from above orbital plane
View from above satellite
View from above satellite

Ground track
Ground track

The orbit data is extracted from the following two-line orbital elements,

1 17191U 86097A   14232.34641583  .00001003  00000-0  63889-4 0  9650
2 17191 082.5041 322.9919 0008443 350.8390 009.2683 15.07661960507891
Epoch (UTC): 20 August 2014 08:18:50
Eccentricity: 0.0008443
inclination: 82.5041°
perigee height: 537 km
apogee height: 549 km
right ascension of ascending node: 322.9919°
argument of perigee: 350.8390°
revolutions per day: 15.07661960
mean anomaly at epoch: 9.2683°
orbit number at epoch: 50789

The dashed part of the orbit path shows where the satellite is in the earth's shadow,  

DLR